Flag Island, MN

12:05 AM CDT on August 23, 2017 (GMT -0500)
Flag Island

Weather History for KFGN - April, 2013

Change the Weather History Date:

Thursday, April 4, 2013

  Actual Average Record
Temperature  
Mean Temperature 24 °F -  
Max Temperature 30 °F 35 °F 51 °F (1998)
Min Temperature 19 °F 20 °F 10 °F (2016)
Degree Days  
Heating Degree Days 40    
Moisture  
Dew Point 17 °F    
Average Humidity 68    
Maximum Humidity 93    
Minimum Humidity 51    
Precipitation  
Precipitation 0.00 in - - ()
Sea Level Pressure  
Sea Level Pressure 30.09 in    
Wind  
Wind Speed 12 mph (NW)    
Max Wind Speed 24 mph    
Max Gust Speed 26 mph    
Visibility 10 miles    
Events      
Averages and records for this station are not official NWS values.
T = Trace of Precipitation, MM = Missing Value Source: NWS Daily Summary

Daily Weather History Graph

Daily Weather History Graph

Search for Another Location

Airport or City:

Trip Planner

Search our weather history database for the weather conditions in past years. The results will help you decide how hot, cold, wet, or windy it might be!

Date:

Astronomy

Apr. 04, 2013 Rise Set
Actual Time 6:49 AM CDT 7:55 PM CDT
Civil Twilight 6:17 AM CDT 8:28 PM CDT
Nautical Twilight 5:38 AM CDT 9:08 PM CDT
Astronomical Twilight 4:56 AM CDT 9:50 PM CDT
Moon 3:47 AM CDT (4/4) 1:46 PM CDT (4/4)
Length of Visible Light 14h 11m
Length of Day
13h 06m
Waning Crescent, 33% of the Moon is Illuminated
Apr 4
Waning Crescent
Apr 10
New
Apr 18
First Quarter
Apr 25
Full
May 2
Last Quarter

Hourly Weather History & Observations

Time (CDT) Temp. Windchill Dew Point Humidity Pressure Visibility Wind Dir Wind Speed Gust Speed Precip Events Conditions
12:13 AM 30.2 °F 22.6 °F 28.4 °F 93% 29.91 in 10.0 mi WNW 8.1 mph - N/A   Clear
12:34 AM 30.2 °F 22.6 °F 26.6 °F 86% 29.91 in 10.0 mi WNW 8.1 mph - N/A   Clear
12:53 AM 30.2 °F 23.4 °F 26.6 °F 86% 29.91 in 10.0 mi West 6.9 mph - N/A   Clear
1:13 AM 30.2 °F 22.6 °F 26.6 °F 86% 29.92 in 10.0 mi WNW 8.1 mph - N/A   Clear
1:33 AM 30.2 °F 22.6 °F 26.6 °F 86% 29.92 in 7.0 mi WNW 8.1 mph - N/A   Clear
1:53 AM 28.4 °F 21.2 °F 26.6 °F 93% 29.92 in 7.0 mi WNW 6.9 mph - N/A   Clear
2:13 AM 28.4 °F 23.3 °F 26.6 °F 93% 29.92 in 7.0 mi WNW 4.6 mph - N/A   Clear
2:33 AM 28.4 °F 18.5 °F 26.6 °F 93% 29.93 in 7.0 mi WNW 11.5 mph - N/A   Clear
2:53 AM 28.4 °F 19.1 °F 26.6 °F 93% 29.93 in 10.0 mi NW 10.4 mph - N/A   Clear
3:13 AM 28.4 °F 18.5 °F 24.8 °F 86% 29.94 in 10.0 mi NW 11.5 mph - N/A   Clear
3:34 AM 26.6 °F 16.8 °F 24.8 °F 93% 29.95 in 7.0 mi WNW 10.4 mph - N/A   Clear
3:53 AM 26.6 °F 17.5 °F 24.8 °F 93% 29.95 in 10.0 mi WNW 9.2 mph - N/A   Clear
4:14 AM 26.6 °F 16.2 °F 24.8 °F 93% 29.97 in 10.0 mi NW 11.5 mph - N/A   Clear
4:33 AM 26.6 °F 14.3 °F 23.0 °F 86% 29.97 in 10.0 mi NW 16.1 mph - N/A   Clear
4:53 AM 26.6 °F 15.7 °F 21.2 °F 80% 29.98 in 10.0 mi NNW 12.7 mph - N/A   Clear
5:13 AM 26.6 °F 15.7 °F 21.2 °F 80% 29.98 in 10.0 mi NW 12.7 mph - N/A   Clear
5:33 AM 26.6 °F 14.7 °F 19.4 °F 74% 29.99 in 10.0 mi NW 15.0 mph - N/A   Clear
5:54 AM 24.8 °F 14.6 °F 19.4 °F 80% 30.00 in 10.0 mi WNW 10.4 mph - N/A   Clear
6:13 AM 26.6 °F 15.2 °F 19.4 °F 74% 30.01 in 10.0 mi NW 13.8 mph - N/A   Clear
6:34 AM 24.8 °F 12.9 °F 19.4 °F 80% 30.02 in 10.0 mi NW 13.8 mph - N/A   Clear
6:53 AM 24.8 °F 14.6 °F 19.4 °F 80% 30.03 in 10.0 mi NW 10.4 mph - N/A   Clear
7:13 AM 24.8 °F 14.0 °F 19.4 °F 80% 30.04 in 10.0 mi NW 11.5 mph - N/A   Scattered Clouds
7:34 AM 24.8 °F 14.6 °F 19.4 °F 80% 30.04 in 10.0 mi NW 10.4 mph - N/A   Mostly Cloudy
7:53 AM 24.8 °F 14.0 °F 19.4 °F 80% 30.05 in 10.0 mi NW 11.5 mph - N/A   Overcast
8:13 AM 26.6 °F 14.3 °F 19.4 °F 74% 30.06 in 10.0 mi NW 16.1 mph 19.6 mph N/A   Overcast
8:33 AM 26.6 °F 13.8 °F 19.4 °F 74% 30.07 in 10.0 mi NW 17.3 mph - N/A   Overcast
8:53 AM 24.8 °F 10.0 °F 15.8 °F 69% 30.08 in 10.0 mi NW 21.9 mph - N/A   Scattered Clouds
9:14 AM 24.8 °F 10.0 °F 15.8 °F 69% 30.08 in 10.0 mi NW 21.9 mph - N/A   Clear
9:33 AM 24.8 °F 11.1 °F 15.8 °F 69% 30.08 in 10.0 mi NW 18.4 mph 26.5 mph N/A   Clear
9:54 AM 24.8 °F 10.0 °F 14.0 °F 64% 30.09 in 10.0 mi NW 21.9 mph 25.3 mph N/A   Clear
10:13 AM 24.8 °F 10.0 °F 14.0 °F 64% 30.09 in 10.0 mi NW 21.9 mph - N/A   Clear
10:34 AM 24.8 °F 9.6 °F 12.2 °F 59% 30.11 in 10.0 mi NW 23.0 mph - N/A   Clear
10:53 AM 24.8 °F 9.3 °F 12.2 °F 59% 30.12 in 10.0 mi NNW 24.2 mph - N/A   Clear
11:33 AM 26.6 °F 13.1 °F 15.8 °F 64% 30.13 in 10.0 mi NW 19.6 mph 23.0 mph N/A   Clear
11:54 AM 26.6 °F 12.7 °F 12.2 °F 55% 30.14 in 10.0 mi NNW 20.7 mph - N/A   Clear
12:13 PM 26.6 °F 12.4 °F 12.2 °F 55% 30.15 in 10.0 mi NNW 21.9 mph - N/A   Clear
12:33 PM 26.6 °F 13.4 °F 12.2 °F 55% 30.15 in 10.0 mi NNW 18.4 mph - N/A   Clear
12:53 PM 26.6 °F 12.7 °F 12.2 °F 55% 30.15 in 10.0 mi NNW 20.7 mph 25.3 mph N/A   Clear
1:14 PM 28.4 °F 15.1 °F 12.2 °F 51% 30.15 in 10.0 mi NW 20.7 mph - N/A   Clear
1:33 PM 28.4 °F 16.6 °F 14.0 °F 55% 30.15 in 10.0 mi NW 16.1 mph - N/A   Clear
1:53 PM 28.4 °F 15.8 °F 12.2 °F 51% 30.16 in 10.0 mi NNW 18.4 mph - N/A   Clear
2:13 PM 28.4 °F 16.6 °F 14.0 °F 55% 30.16 in 10.0 mi NW 16.1 mph - N/A   Clear
2:33 PM 28.4 °F 15.4 °F 12.2 °F 51% 30.15 in 10.0 mi NW 19.6 mph - N/A   Clear
2:53 PM 28.4 °F 15.8 °F 12.2 °F 51% 30.15 in 10.0 mi NW 18.4 mph - N/A   Clear
3:14 PM 28.4 °F 16.2 °F 12.2 °F 51% 30.15 in 10.0 mi NW 17.3 mph - N/A   Clear
3:33 PM 28.4 °F 16.6 °F 14.0 °F 55% 30.15 in 10.0 mi NNW 16.1 mph - N/A   Clear
3:54 PM 28.4 °F 17.0 °F 12.2 °F 51% 30.15 in 10.0 mi NW 15.0 mph 19.6 mph N/A   Clear
4:13 PM 30.2 °F 18.9 °F 14.0 °F 51% 30.15 in 10.0 mi NW 16.1 mph - N/A   Clear
4:33 PM 30.2 °F 19.3 °F 15.8 °F 55% 30.15 in 10.0 mi NW 15.0 mph - N/A   Clear
4:53 PM 30.2 °F 19.8 °F 15.8 °F 55% 30.16 in 10.0 mi NW 13.8 mph - N/A   Clear
5:13 PM 30.2 °F 18.9 °F 14.0 °F 51% 30.17 in 10.0 mi NW 16.1 mph - N/A   Clear
5:33 PM 30.2 °F 19.3 °F 14.0 °F 51% 30.18 in 10.0 mi NNW 15.0 mph - N/A   Clear
5:54 PM 30.2 °F 19.3 °F 15.8 °F 55% 30.18 in 10.0 mi NW 15.0 mph - N/A   Clear
6:13 PM 30.2 °F 20.8 °F 15.8 °F 55% 30.18 in 10.0 mi NNW 11.5 mph - N/A   Clear
6:33 PM 28.4 °F 18.5 °F 15.8 °F 59% 30.18 in 10.0 mi NW 11.5 mph - N/A   Clear
6:54 PM 28.4 °F 18.5 °F 15.8 °F 59% 30.19 in 10.0 mi NW 11.5 mph - N/A   Clear
7:13 PM 26.6 °F 16.2 °F 15.8 °F 64% 30.19 in 10.0 mi NW 11.5 mph - N/A   Clear
7:33 PM 26.6 °F 15.7 °F 14.0 °F 59% 30.19 in 10.0 mi NW 12.7 mph - N/A   Clear
7:54 PM 24.8 °F 14.0 °F 14.0 °F 64% 30.19 in 10.0 mi NW 11.5 mph - N/A   Clear
8:13 PM 24.8 °F 12.9 °F 12.2 °F 59% 30.20 in 10.0 mi NW 13.8 mph 18.4 mph N/A   Clear
8:33 PM 24.8 °F 13.4 °F 12.2 °F 59% 30.20 in 10.0 mi NW 12.7 mph - N/A   Clear
8:54 PM 23.0 °F 10.6 °F 12.2 °F 63% 30.21 in 10.0 mi NW 13.8 mph - N/A   Clear
9:13 PM 23.0 °F 11.1 °F 10.4 °F 59% 30.22 in 10.0 mi NW 12.7 mph - N/A   Clear
9:33 PM 19.4 °F 9.5 °F 10.4 °F 68% 30.21 in 10.0 mi NW 8.1 mph - N/A   Clear
9:54 PM 19.4 °F 9.5 °F 10.4 °F 68% 30.21 in 10.0 mi NNW 8.1 mph - N/A   Clear
10:13 PM 19.4 °F 9.5 °F 10.4 °F 68% 30.21 in 10.0 mi NW 8.1 mph - N/A   Clear
10:33 PM 19.4 °F 8.6 °F 8.6 °F 63% 30.22 in 10.0 mi NW 9.2 mph - N/A   Clear
10:54 PM 19.4 °F 8.6 °F 8.6 °F 63% 30.22 in 10.0 mi NW 9.2 mph - N/A   Clear
11:13 PM 19.4 °F 8.6 °F 8.6 °F 63% 30.22 in 10.0 mi NW 9.2 mph - N/A   Clear
11:33 PM 19.4 °F 10.4 °F 10.4 °F 68% 30.22 in 10.0 mi NW 6.9 mph - N/A   Clear
11:54 PM 19.4 °F 8.6 °F 10.4 °F 68% 30.22 in 10.0 mi NW 9.2 mph - N/A   Clear